Location: Tamazert
(32.6352°N, 5.2072°W)
Time: 20:18:29
(UTC+00:00)

Transit 2A Rocket - Pass Details

Date: 04 October 2022
Orbit: 589 x 911 km, 66.7° (Epoch: 28 November)

Event Time Altitude Azimuth Distance (km) Brightness Sun altitude
Rises 04:38:25 0° 184° (S) 2,885 - -21.5°
Exits shadow 04:38:51 - 183° (S) 2,717 7.7 -21.4°
Reaches altitude 10° 04:40:52 10° 175° (S) 1,951 7.1 -21.0°
Maximum altitude 04:44:47 33° 111° (ESE) 994 6.1 -20.2°
Drops below altitude 10° 04:48:38 10° 46° (NE) 1,916 7.8 -19.4°
Sets 04:51:00 0° 37° (NE) 2,825 8.6 -18.9°
